Weather History for Herbert Island, BC

Change the Weather History Date:

Sunday, February 17, 2013

  Actual Average Record
Temperature  
Mean Temperature 42 °F -  
Max Temperature 43 °F - - ()
Min Temperature 40 °F - - ()
Degree Days  
Heating Degree Days 24    
Moisture  
Dew Point 37 °F    
Average Humidity 81    
Maximum Humidity 91    
Minimum Humidity 69    
Precipitation  
Precipitation 0.02 in - - ()
Sea Level Pressure  
Sea Level Pressure 30.17 in    
Wind  
Wind Speed 11 mph ()    
Max Wind Speed 18 mph    
Max Gust Speed -    
T = Trace of Precipitation, MM = Missing Value Source: Averaged Metar Reports

Daily Weather History Graph

Daily Weather History Graph

Search for Another Location

Airport:

Trip Planner

Search our weather history database for the weather conditions in past years. The results will help you decide how hot, cold, wet, or windy it might be!

Date:

Astronomy

Feb. 17, 2013 Rise Set
Actual Time 7:38 AM PST 5:51 PM PST
Civil Twilight 7:04 AM PST 6:25 PM PST
Nautical Twilight 6:26 AM PST 7:03 PM PST
Astronomical Twilight 5:48 AM PST 7:41 PM PST
Moon 10:43 AM PST (2/17) 1:43 AM PST (2/17)
Length of Visible Light 11h 20m
Length of Day
10h 12m
Waxing Crescent, 50% of the Moon is Illuminated
Feb 17
Waxing Crescent
Feb 17
First Quarter
Feb 25
Full
Mar 4
Last Quarter
Mar 11
New

Hourly Weather History & Observations

Time (PST) Temp. Windchill Dew Point Humidity Pressure Visibility Wind Dir Wind Speed Gust Speed Precip Events Conditions
12:00 AM 42.3 °F 33.8 °F 36.9 °F 81% 30.25 in - NNW 18.4 mph - N/A   Unknown
1:00 AM 42.4 °F 35.3 °F 38.1 °F 85% 30.26 in - NW 13.8 mph - N/A   Unknown
2:00 AM 42.8 °F 35.1 °F 37.2 °F 81% 30.26 in - NW 16.1 mph - N/A   Unknown
3:00 AM 42.6 °F 36.3 °F 37.0 °F 81% 30.24 in - NW 11.5 mph - N/A   Unknown
4:00 AM 43 °F - 36 °F 69% 30.24 in - NW 11.5 mph - -  
4:00 AM 42.8 °F 36.6 °F 36.3 °F 78% 30.24 in - NW 11.5 mph - N/A   Unknown
5:00 AM 42.6 °F 36.3 °F 36.5 °F 79% 30.23 in - NNW 11.5 mph - N/A   Unknown
6:00 AM 42.4 °F 36.1 °F 35.6 °F 77% 30.23 in - NNW 11.5 mph - N/A   Unknown
7:00 AM 41.9 °F 36.9 °F 35.1 °F 77% 30.22 in - NNW 8.1 mph - N/A   Unknown
8:00 AM 41.2 °F 39.2 °F 36.5 °F 83% 30.22 in - North 3.5 mph - N/A   Unknown
9:00 AM 41.2 °F 35.5 °F 37.8 °F 88% 30.22 in - West 9.2 mph - N/A   Unknown
10:00 AM 40 °F - 37 °F 87% 30.21 in - WNW 5.8 mph - -  
10:00 AM 40.5 °F 36.5 °F 37.4 °F 89% 30.21 in - WNW 5.8 mph - N/A   Unknown
11:00 AM 40.5 °F 36.5 °F 37.9 °F 91% 30.21 in - SE 5.8 mph - N/A   Unknown
12:00 PM 40.3 °F 34.4 °F 37.4 °F 89% 30.20 in - ESE 9.2 mph - N/A   Unknown
1:00 PM 41.5 °F 37.8 °F 37.2 °F 85% 30.19 in - SE 5.8 mph - N/A   Unknown
2:00 PM 41.0 °F 36.4 °F 36.1 °F 83% 30.17 in - ESE 6.9 mph - N/A   Unknown
3:00 PM 42.4 °F 37.0 °F 37.6 °F 83% 30.15 in - SE 9.2 mph - 0.02 in   Unknown
4:00 PM 42 °F - 37 °F 77% 30.14 in - SE 10.4 mph - -  
4:00 PM 42.3 °F 36.3 °F 37.2 °F 82% 30.14 in - SE 10.4 mph - N/A   Unknown
5:00 PM 42.1 °F 36.1 °F 37.2 °F 83% 30.12 in - SE 10.4 mph - N/A   Unknown
6:00 PM 42.4 °F 35.0 °F 37.0 °F 81% 30.11 in - SE 15.0 mph - N/A   Unknown
7:00 PM 42.8 °F 34.8 °F 37.6 °F 82% 30.09 in - SSE 17.3 mph - N/A   Unknown
8:00 PM 42.6 °F 35.9 °F 37.6 °F 82% 30.08 in - SE 12.7 mph - N/A   Unknown
9:00 PM 42.6 °F 35.2 °F 36.9 °F 80% 30.07 in - SSE 15.0 mph - N/A   Unknown
10:00 PM 43 °F - 37 °F 72% 30.05 in - SE 13.8 mph - -  
10:00 PM 42.8 °F 35.8 °F 37.0 °F 80% 30.05 in - SE 13.8 mph - N/A   Unknown
11:00 PM 42.6 °F 35.6 °F 34.9 °F 74% 30.04 in - SSE 13.8 mph - N/A   Unknown